DELTA 1 R/B, 341

Orbit data source: Space-Track

DELTA 1 R/B, 341 is space debris in LEO originally from a launch on Tue, 10 Jul 1962 UTC launched from the Air Force Eastern Test Range (AFETR). Debris objects in space refer to the collection of defunct objects orbiting the Earth. Examples of debris include non-operational satellites, rocket bodies, and fragments generated from explosions, collisions, or faulty payload assembly.

Loading next visibility...
DELTA 1 R/B details
Identifier
341, 1962-029B
Orbit
LEO
Last TLE update19 hours ago
Origin
Flag of USGSFC (US)
ManufacturerABL
MissionSpacecraft
Bus & MotorALTAIR, Unknown motor
Mass24 kg wet, 24 kg dry
Launch date (UTC)
1962-07-10 (63 years ago)
Launch vehicleUnknown
Launch site
Air Force Eastern Test Range (AFETR)
Object type
Payload
Rocket body
Debris
Shape & HBRCyl, 1.5 m
Radar Cross Section0.687 m², Medium (>0.1 m² and < 1m²)

Expand to show TLE details & history

TLE from 19 hours ago
0 DELTA 1 R/B
1 00341U 62029B   25047.29568174  .00000078  00000-0  89935-3 0  9999
2 00341  44.7923  42.6386 2419982  11.6465   2.1433  9.14292891 90687
Epoch: 2025-02-16T07:05Z
Definitive object data (Epoch: 2025-02-16T07:05:46.902Z)
Latitude10.70374°
Longitude160.57787°
Altitude946.915 km
Speed8.222 km/s
True Right ascension03h 34m 12s
True Declination10° 38' 34"
Sunlit
Object was in daylight at TLE epoch
Visualization TLE readout
Latitude42.35161°
Longitude-97.91548°
Altitude2,885.258 km
Speed6.699 km/s
Apparent Right ascension12h 50m 40s
Apparent Declination15° 03' 43"
Sunlit
Object is in full shadow
Visualization observer readout
Local Sidereal Time04:45:09
Azimuth57.661° ENE
Elevation-12.645°
Doppler factor1
Orbital elements
Apogee altitude5,622.109 km
Perigee altitude945.713 km
Semi-major axis9,662.048 km
Eccentricity0.2419982
Inclination44.7923°
RAAN42.6386°
Arg. of periapsis11.6465°
True anomaly3.61848°
Mean anomaly2.1433°
Eccentric anomaly2.8272°
Mean motion2.28528 °/min
BSTAR0.00089935
Orbital period157.53 mins
Loading maneuver chart data...
Loading historical data...
Loading historical data...
Loading historical data...
Loading historical data...
Loading historical data...
Loading historical data...
Loading historical data...
Other satellites on launch #29 in the year 1962 (1962-07-10 UTC)

DELTA 1 R/B Visibility forecast

Observer location: undefined°, undefined

Span
Click to sort rows by Start time (UTC) header in descending order
Start Az.
Max El. time (UTC)
Max El. Az.
Max El.
End time (UTC)
End Az.
21 mins2025-02-17 04:14:24.730Z257.679° W2025-02-17 04:21:24.730Z1.415° NNE44.399°2025-02-17 04:35:24.730Z71.955° E
35 mins2025-02-17 07:00:24.730Z289.496° WNW2025-02-17 07:10:24.730Z27.076° NE44.494°2025-02-17 07:35:24.730Z105.832° ESE
45 mins2025-02-17 09:46:24.730Z290.814° WNW2025-02-17 10:01:24.730Z214.759° SW41.105°2025-02-17 10:31:24.730Z148.322° SSE
35 mins2025-02-17 12:37:24.730Z274.05° WNW2025-02-17 12:51:24.730Z238.181° WSW20.27°2025-02-17 13:12:24.730Z199.028° SSW
9 mins2025-02-18 01:09:24.730Z169.714° S2025-02-18 01:12:24.730Z132.154° SE22.706°2025-02-18 01:18:24.730Z79.448° E
|